z/d,0,0,50,50,100,100,200,200,300,300,400,400,500,500,750,750,1000,1000,2000,2000,3000,3000,4000,4000,4700,4700
2016.11.04-01:00,1.39,73.70,1.43,69.34,1.17,71.60,.99,76.18,1.04,73.86,.96,77.61,.87,71.72,.67,66.55,.38,58.06,.27,56.54,.23,48.94,.25,36.40,.03,90.00
2016.11.04-02:00,1.40,77.38,1.44,71.96,1.19,71.82,.98,74.54,1.04,74.09,.94,76.71,.87,70.16,.68,66.30,.40,52.53,.26,49.62,.21,49.59,.24,39.19,.03,90.00
2016.11.04-03:00,1.37,81.52,1.43,75.36,1.20,72.15,.98,72.50,1.03,73.88,.91,75.26,.86,69.08,.68,67.28,.43,49.25,.25,40.72,.18,48.56,.22,41.19,.03,90.00
2016.11.04-04:00,1.33,84.49,1.38,79.07,1.20,72.19,.98,70.03,1.01,73.11,.88,73.30,.84,68.63,.66,69.59,.44,48.41,.26,32.98,.15,44.62,.18,41.79,.03,90.00
2016.11.04-05:00,1.26,86.42,1.30,82.32,1.19,71.99,.99,67.56,1.00,72.10,.85,71.00,.81,68.72,.62,72.76,.46,49.63,.28,28.83,.12,36.54,.15,40.34,.02,90.00
2016.11.04-06:00,1.17,89.49,1.20,84.99,1.17,72.24,1.01,66.22,.99,71.68,.85,69.04,.80,69.37,.58,76.18,.46,52.37,.30,28.34,.10,23.58,.12,34.82,.01,90.00
2016.11.04-07:00,1.05,93.67,1.09,86.66,1.14,72.97,1.03,66.30,.99,71.86,.86,67.75,.79,70.09,.54,78.84,.46,56.22,.32,31.23,.10,12.72,.11,26.07,.00,90.00
2016.11.04-08:00,.93,96.19,.99,86.75,1.11,73.72,1.04,67.26,.98,72.35,.87,67.20,.81,70.58,.50,79.70,.46,60.16,.35,36.39,.12,11.49,.11,20.79,.00,270.00
2016.11.04-09:00,.82,95.05,.90,84.50,1.07,74.09,1.04,68.53,.97,73.03,.89,67.39,.83,71.12,.47,77.82,.46,62.79,.37,42.11,.14,17.41,.12,22.11,.00,270.00
2016.11.04-10:00,.74,90.42,.86,79.61,1.05,73.68,1.04,69.66,.96,73.74,.91,68.21,.85,71.92,.46,73.21,.45,63.65,.39,47.65,.17,25.38,.14,26.64,.00,270.00
2016.11.04-11:00,.67,84.93,.86,73.52,1.05,72.60,1.05,70.55,.96,74.45,.93,69.43,.88,72.86,.47,67.25,.45,63.20,.40,53.16,.19,32.59,.16,30.83,.00,90.00
2016.11.04-12:00,.65,76.62,.90,68.12,1.07,71.37,1.08,71.47,.96,75.22,.95,70.94,.90,73.84,.51,62.08,.45,62.10,.41,58.23,.21,37.19,.17,32.30,.01,90.00
2016.11.04-13:00,.68,68.44,.96,64.20,1.10,70.52,1.11,72.60,.97,76.01,.97,72.56,.91,74.79,.55,59.03,.46,60.91,.39,62.40,.21,39.63,.18,32.04,.01,90.00
2016.11.04-14:00,.74,62.40,1.03,61.67,1.14,70.46,1.14,74.10,.98,76.83,.98,74.22,.91,75.94,.58,58.32,.47,60.03,.37,65.32,.20,40.68,.17,31.67,.00,90.00
2016.11.04-15:00,.87,58.22,1.10,60.50,1.18,71.17,1.16,75.85,.97,77.42,.97,75.66,.88,77.32,.59,59.38,.47,59.74,.33,66.75,.18,40.12,.15,30.86,.00,90.00
2016.11.04-16:00,1.01,56.97,1.17,60.53,1.20,72.20,1.15,77.39,.94,77.12,.94,76.34,.84,78.50,.60,61.17,.48,60.35,.29,67.21,.16,38.83,.13,29.64,.00,270.00
2016.11.04-17:00,1.11,58.39,1.23,61.50,1.21,73.25,1.13,78.44,.91,75.55,.90,76.00,.79,79.01,.59,62.94,.48,62.00,.26,66.83,.13,37.87,.11,27.78,.01,270.00
2016.11.04-18:00,1.17,61.02,1.27,63.25,1.19,74.39,1.09,79.09,.89,73.04,.87,74.90,.74,78.62,.58,64.70,.49,65.02,.24,65.50,.11,37.56,.09,23.70,.01,270.00
2016.11.04-19:00,1.22,64.13,1.28,65.56,1.17,75.64,1.05,79.45,.89,70.47,.87,73.59,.72,77.40,.58,66.62,.48,69.35,.23,63.27,.10,37.30,.08,16.60,.01,270.00
2016.11.04-20:00,1.24,67.56,1.29,67.94,1.14,76.88,1.02,79.60,.92,68.73,.88,72.61,.72,75.72,.58,68.34,.47,73.90,.23,61.05,.11,39.38,.09,15.56,.01,270.00
2016.11.04-21:00,1.26,70.57,1.29,70.00,1.11,77.88,.98,79.58,.94,68.13,.90,72.30,.73,73.90,.58,68.88,.44,76.80,.24,59.30,.13,43.55,.12,21.56,.00,270.00
2016.11.04-22:00,1.29,72.74,1.31,71.48,1.09,78.18,.96,79.20,.97,68.49,.93,72.74,.76,72.26,.59,68.35,.41,76.99,.26,58.30,.16,47.21,.15,27.85,.01,90.00
2016.11.04-23:00,1.31,74.30,1.33,72.77,1.07,77.68,.94,78.43,.99,69.47,.96,73.77,.80,71.02,.62,67.56,.39,74.48,.28,57.47,.18,49.09,.19,31.79,.02,90.00
2016.11.04-24:00,1.34,75.55,1.35,74.18,1.07,76.71,.93,77.22,1.02,70.76,.98,75.01,.84,69.88,.65,66.87,.39,69.78,.28,55.60,.20,49.61,.22,34.33,.03,90.00
2016.11.05-01:00,1.35,76.92,1.36,75.50,1.07,75.50,.93,75.35,1.04,71.82,.99,75.73,.87,68.29,.69,66.25,.39,63.68,.29,52.19,.21,50.02,.24,37.07,.03,90.00
2016.11.05-02:00,1.34,78.72,1.35,77.00,1.08,74.38,.93,73.12,1.05,72.65,.98,75.72,.90,66.46,.71,65.93,.40,57.08,.29,47.07,.20,50.55,.24,40.28,.04,90.00
2016.11.05-03:00,1.31,80.99,1.32,78.98,1.08,73.35,.94,70.86,1.05,73.29,.96,75.12,.91,65.12,.71,66.49,.42,51.41,.29,40.72,.19,50.02,.22,42.96,.03,90.00
2016.11.05-04:00,1.26,83.38,1.27,81.23,1.08,72.12,.95,68.57,1.04,73.60,.92,74.09,.91,64.80,.70,68.37,.44,48.19,.30,35.13,.16,47.50,.19,44.61,.03,90.00
2016.11.05-05:00,1.18,85.63,1.19,83.56,1.07,70.74,.97,66.34,1.03,73.63,.89,72.60,.90,65.35,.67,71.15,.46,47.50,.32,31.81,.13,41.46,.16,44.23,.02,90.00
2016.11.05-06:00,1.08,87.87,1.08,85.87,1.06,69.91,1.00,65.08,1.01,73.89,.87,70.96,.88,66.83,.64,74.39,.48,49.00,.33,31.13,.11,30.54,.13,40.11,.01,90.00
2016.11.05-07:00,.97,89.89,.97,87.67,1.05,69.73,1.03,64.93,.99,74.10,.86,69.45,.87,68.80,.60,77.36,.50,51.82,.35,33.07,.11,18.93,.11,31.98,.00,90.00
2016.11.05-08:00,.86,90.94,.86,88.16,1.04,69.80,1.04,65.37,.96,73.94,.86,68.30,.87,70.81,.55,79.37,.51,55.14,.37,37.24,.12,14.61,.10,24.18,.00,270.00
2016.11.05-09:00,.75,89.69,.77,86.47,1.03,69.92,1.06,66.24,.94,73.68,.87,67.82,.87,72.84,.51,79.37,.51,57.95,.39,42.56,.14,18.09,.11,21.70,.01,270.00
2016.11.05-10:00,.70,84.94,.71,82.06,1.03,70.11,1.07,67.54,.93,73.66,.89,68.10,.89,74.69,.48,76.46,.50,59.83,.41,48.07,.16,24.87,.13,23.35,.00,270.00
2016.11.05-11:00,.71,80.15,.69,75.87,1.04,70.30,1.09,69.05,.93,73.87,.91,68.82,.90,75.99,.47,70.79,.49,61.05,.42,53.42,.19,31.70,.15,25.93,.00,270.00
2016.11.05-12:00,.72,76.51,.70,69.23,1.05,70.32,1.11,70.54,.92,74.13,.93,69.70,.91,76.67,.49,64.26,.49,62.04,.43,58.46,.20,37.08,.16,27.60,.00,90.00
2016.11.05-13:00,.74,72.16,.73,62.95,1.06,70.19,1.12,72.02,.93,74.44,.96,70.77,.92,77.05,.53,59.43,.50,62.96,.42,62.87,.21,40.80,.18,28.28,.00,90.00
2016.11.05-14:00,.78,69.65,.79,58.00,1.08,70.14,1.14,73.59,.93,74.76,.97,72.02,.92,77.52,.58,57.19,.50,63.72,.39,66.22,.21,43.39,.18,29.05,.00,90.00
2016.11.05-15:00,.84,66.75,.89,55.80,1.10,70.55,1.14,75.29,.93,74.98,.97,73.31,.90,78.22,.62,56.99,.50,64.27,.35,68.08,.19,45.46,.17,30.58,.01,90.00
2016.11.05-16:00,.91,63.62,1.00,56.58,1.12,71.65,1.13,76.93,.92,74.83,.96,74.33,.85,78.93,.64,57.89,.50,64.54,.31,68.15,.17,47.59,.16,33.08,.01,90.00
2016.11.05-17:00,1.00,63.15,1.09,59.16,1.13,73.22,1.11,78.18,.91,73.80,.92,74.71,.79,79.16,.64,59.31,.49,64.86,.27,66.49,.15,50.35,.14,36.40,.01,90.00
2016.11.05-18:00,1.06,65.07,1.15,62.58,1.12,74.95,1.07,78.79,.90,71.78,.89,74.39,.73,78.47,.64,61.53,.49,66.14,.25,63.46,.13,52.88,.12,38.46,.01,90.00
2016.11.05-19:00,1.10,67.71,1.17,66.41,1.10,76.75,1.04,78.80,.90,69.43,.87,73.59,.69,76.86,.64,64.57,.48,68.58,.23,59.62,.11,53.74,.10,37.48,.00,90.00
2016.11.05-20:00,1.10,70.73,1.16,70.21,1.06,78.45,1.01,78.37,.92,67.55,.87,72.60,.67,74.55,.63,67.73,.47,71.41,.24,55.98,.10,52.44,.10,34.99,.00,90.00
2016.11.05-21:00,1.09,73.80,1.13,73.77,1.02,79.86,.98,77.90,.95,66.69,.89,71.97,.69,72.02,.63,70.04,.45,73.25,.25,53.26,.11,49.79,.11,33.57,.01,90.00
2016.11.05-22:00,1.08,77.30,1.09,76.85,.97,80.71,.96,77.70,.98,66.99,.91,72.13,.72,69.94,.63,71.01,.43,73.09,.27,51.70,.13,47.41,.13,33.74,.01,90.00
2016.11.05-23:00,1.08,80.46,1.05,78.94,.93,80.35,.95,77.41,1.01,67.89,.94,72.86,.77,68.44,.65,70.88,.42,70.99,.30,50.95,.15,46.08,.16,34.70,.02,90.00
2016.11.05-24:00,1.05,81.66,1.02,79.88,.90,78.60,.94,76.61,1.03,68.85,.96,73.67,.81,67.07,.68,70.01,.41,67.31,.32,50.29,.18,46.10,.19,36.44,.03,90.00
2016.11.06-01:00,1.02,81.76,.99,80.14,.89,75.99,.93,75.26,1.05,69.71,.97,74.22,.86,65.59,.70,68.85,.42,62.65,.33,49.02,.19,46.91,.21,38.60,.03,90.00
2016.11.06-02:00,1.01,83.40,.96,80.12,.89,73.25,.93,73.58,1.07,70.60,.98,74.53,.90,64.32,.71,67.90,.43,57.62,.34,46.54,.20,47.64,.22,40.62,.03,90.00
2016.11.06-03:00,.98,84.17,.94,80.03,.91,70.99,.94,71.98,1.08,71.71,.97,74.83,.93,63.78,.72,67.68,.44,53.06,.34,43.07,.20,47.79,.22,42.18,.03,90.00
2016.11.06-04:00,.93,84.04,.90,79.98,.92,69.42,.95,70.44,1.08,72.72,.95,74.83,.94,63.87,.71,68.42,.47,50.11,.35,39.79,.19,47.00,.21,42.78,.03,90.00
2016.11.06-05:00,.86,84.49,.86,80.37,.94,68.69,.96,68.80,1.05,73.28,.91,74.10,.93,64.39,.69,70.30,.49,49.64,.36,37.75,.17,44.30,.18,41.26,.02,90.00
2016.11.06-06:00,.77,88.39,.80,81.67,.94,68.84,.97,67.15,1.02,73.39,.87,72.52,.92,65.47,.66,73.39,.53,51.55,.37,37.33,.14,38.62,.16,36.56,.02,90.00
2016.11.06-07:00,.68,92.79,.74,83.66,.93,69.55,.98,65.77,.99,73.14,.85,70.54,.90,67.23,.63,76.96,.55,54.39,.38,38.51,.13,31.51,.14,30.19,.01,90.00
2016.11.06-08:00,.62,94.08,.67,85.36,.92,70.25,1.00,64.86,.97,72.59,.84,68.76,.89,69.37,.58,79.94,.55,57.02,.40,41.25,.13,27.25,.14,25.76,.00,90.00
2016.11.06-09:00,.55,95.99,.60,86.00,.92,70.85,1.02,64.86,.95,72.29,.85,67.62,.88,71.58,.52,80.91,.53,59.01,.41,45.21,.14,27.14,.14,24.55,.00,270.00
2016.11.06-10:00,.48,99.98,.55,85.29,.91,71.44,1.04,65.77,.95,72.43,.87,67.01,.88,73.31,.47,78.28,.51,60.10,.42,49.97,.16,29.99,.15,26.04,.00,90.00
2016.11.06-11:00,.40,102.92,.51,82.29,.89,71.73,1.06,67.24,.95,72.91,.89,66.60,.89,74.33,.45,71.96,.50,60.67,.43,54.96,.18,33.79,.16,28.71,.00,90.00
2016.11.06-12:00,.33,100.54,.48,75.83,.88,71.32,1.08,68.95,.96,73.67,.92,66.49,.90,74.91,.47,64.41,.50,61.25,.43,59.49,.19,37.12,.18,31.37,.01,90.00
2016.11.06-13:00,.28,88.72,.47,66.24,.88,70.27,1.09,70.77,.97,74.68,.96,67.06,.92,75.62,.52,58.80,.50,62.23,.42,62.98,.20,39.64,.19,33.69,.01,90.00
2016.11.06-14:00,.30,70.85,.51,56.63,.88,69.04,1.11,72.69,.99,75.86,1.00,68.42,.93,76.73,.58,55.87,.51,63.31,.39,65.05,.20,41.90,.19,35.98,.02,90.00
2016.11.06-15:00,.38,58.19,.60,50.26,.90,68.27,1.11,74.65,.99,76.93,1.02,70.30,.92,78.23,.63,54.89,.52,64.20,.36,65.54,.20,44.64,.19,38.59,.02,90.00
2016.11.06-16:00,.52,55.56,.70,48.63,.93,68.44,1.10,76.31,.97,77.37,1.01,72.16,.88,79.61,.67,55.28,.52,64.89,.32,64.37,.19,48.23,.17,41.53,.02,90.00
2016.11.06-17:00,.61,61.09,.80,51.63,.96,69.87,1.08,77.45,.95,76.83,.99,73.59,.82,80.32,.69,56.94,.52,65.64,.29,61.53,.17,52.33,.15,44.03,.02,90.00
2016.11.06-18:00,.66,68.88,.87,56.75,.98,72.32,1.05,77.96,.92,75.23,.96,74.50,.76,79.96,.70,60.07,.52,67.00,.27,57.43,.15,55.94,.13,44.20,.02,90.00
2016.11.06-19:00,.68,77.08,.91,62.21,.98,75.23,1.02,77.90,.91,73.10,.93,74.97,.71,78.58,.71,64.23,.52,68.90,.26,53.17,.12,57.78,.11,40.37,.01,90.00
2016.11.06-20:00,.67,84.88,.91,67.53,.95,78.15,.99,77.43,.90,71.08,.92,75.15,.68,76.48,.70,68.59,.50,70.89,.26,50.20,.11,56.34,.10,32.81,.01,90.00
2016.11.06-21:00,.65,92.36,.88,72.37,.92,80.50,.97,76.55,.91,69.45,.91,75.05,.68,73.87,.68,72.32,.48,72.33,.28,49.04,.11,51.96,.10,26.33,.01,90.00
2016.11.06-22:00,.61,99.96,.84,76.50,.87,82.03,.96,75.60,.93,68.44,.92,74.85,.69,71.17,.67,74.89,.46,72.82,.30,48.92,.12,47.22,.12,24.66,.01,90.00
2016.11.06-23:00,.58,106.54,.80,79.47,.83,82.47,.95,74.82,.95,68.10,.93,74.68,.73,68.72,.66,76.13,.44,72.34,.32,48.80,.14,44.22,.15,26.89,.02,90.00
2016.11.06-24:00,.54,110.88,.75,80.67,.80,81.61,.95,74.20,.98,68.29,.95,74.60,.77,66.72,.66,76.06,.43,70.78,.34,48.22,.16,43.47,.18,30.90,.02,90.00
2016.11.07-01:00,.48,112.03,.70,79.66,.77,79.53,.96,73.60,1.00,68.79,.97,74.73,.82,65.30,.67,75.05,.43,68.05,.35,47.29,.18,44.26,.21,35.05,.03,90.00
2016.11.07-02:00,.41,108.41,.66,76.28,.76,76.70,.97,72.97,1.03,69.44,.99,75.13,.87,64.58,.67,73.70,.43,64.32,.37,46.23,.20,45.54,.22,38.35,.04,90.00
2016.11.07-03:00,.37,100.66,.65,71.72,.77,74.29,.99,72.55,1.05,70.24,1.00,75.79,.91,64.66,.67,72.74,.44,60.17,.38,45.03,.20,46.64,.23,40.62,.04,90.00
2016.11.07-04:00,.35,94.12,.64,67.75,.79,73.11,1.01,72.26,1.06,70.92,.99,76.31,.94,65.21,.66,72.48,.45,56.31,.39,43.85,.19,47.20,.22,42.01,.04,90.00
2016.11.07-05:00,.33,91.87,.64,65.28,.81,72.99,1.01,71.63,1.06,70.98,.96,76.10,.94,65.83,.64,72.92,.47,53.62,.40,43.19,.18,46.75,.21,42.44,.03,90.00
2016.11.07-06:00,.31,92.13,.62,65.03,.80,73.61,1.01,70.52,1.05,70.35,.93,74.90,.93,66.48,.62,73.94,.49,52.58,.40,43.47,.16,44.62,.19,41.43,.03,90.00
2016.11.07-07:00,.27,91.38,.61,67.04,.79,74.94,1.00,69.45,1.04,69.66,.90,73.08,.92,67.49,.59,75.21,.52,52.96,.40,44.79,.15,40.23,.17,38.29,.02,90.00
2016.11.07-08:00,.22,87.43,.60,69.80,.78,76.41,1.00,68.81,1.03,69.36,.88,71.14,.91,68.92,.56,76.03,.53,54.28,.41,47.15,.14,34.97,.15,33.47,.01,90.00
2016.11.07-09:00,.15,72.81,.59,71.68,.75,77.32,1.00,68.77,1.03,69.63,.87,69.50,.90,70.55,.52,75.52,.54,56.27,.41,50.32,.14,31.27,.14,28.63,.01,90.00
2016.11.07-10:00,.14,44.27,.58,72.26,.73,77.56,1.00,69.52,1.03,70.60,.88,68.55,.90,72.26,.49,72.86,.53,58.53,.41,53.71,.15,30.30,.15,25.94,.00,90.00
2016.11.07-11:00,.19,28.88,.57,71.17,.70,77.06,1.00,70.93,1.03,72.09,.89,68.44,.90,73.90,.48,68.22,.53,60.56,.41,56.84,.17,31.88,.16,26.72,.01,90.00
2016.11.07-12:00,.24,16.48,.56,67.61,.67,75.57,1.00,72.72,1.04,73.88,.92,69.18,.91,75.49,.50,63.16,.52,62.08,.40,59.39,.18,34.82,.17,30.13,.01,90.00
2016.11.07-13:00,.31,9.13,.55,60.86,.65,72.83,1.01,74.60,1.06,75.82,.95,70.66,.93,77.13,.54,59.51,.52,63.31,.39,61.35,.19,37.85,.18,33.98,.02,90.00
2016.11.07-14:00,.39,11.41,.58,52.91,.64,69.30,1.02,76.29,1.07,77.67,.98,72.52,.95,78.79,.60,58.01,.53,64.64,.37,62.61,.20,40.62,.19,36.99,.02,90.00
2016.11.07-15:00,.46,16.60,.64,48.65,.66,66.01,1.02,77.54,1.08,79.17,1.00,74.24,.94,80.31,.65,58.29,.54,66.14,.35,62.79,.21,43.57,.19,39.33,.02,90.00
2016.11.07-16:00,.53,25.74,.73,49.26,.70,64.42,1.01,78.23,1.06,80.12,.99,75.47,.91,81.52,.69,59.84,.54,67.71,.32,61.54,.20,47.02,.19,41.26,.03,90.00
2016.11.07-17:00,.60,37.38,.82,53.55,.76,65.44,.99,78.43,1.03,80.34,.96,75.90,.86,82.09,.71,62.01,.54,68.97,.31,58.98,.19,51.03,.18,42.76,.03,90.00
2016.11.07-18:00,.65,49.09,.89,59.98,.81,68.68,.97,78.28,.99,79.75,.93,75.63,.80,81.80,.72,64.78,.53,69.94,.29,55.58,.17,54.76,.16,42.58,.03,90.00
2016.11.07-19:00,.66,58.27,.92,66.69,.83,72.54,.95,77.61,.95,78.27,.90,74.81,.75,80.71,.72,68.33,.52,71.15,.29,52.30,.15,57.12,.14,39.45,.02,90.00
2016.11.07-20:00,.62,65.35,.90,73.22,.83,76.27,.92,76.26,.92,75.90,.88,73.59,.71,78.92,.71,72.35,.51,72.83,.30,50.00,.14,57.17,.13,33.63,.02,90.00
2016.11.07-21:00,.57,71.64,.87,79.66,.81,79.80,.90,74.49,.90,73.11,.87,72.26,.69,76.47,.69,76.06,.49,74.54,.31,48.83,.13,54.67,.13,27.77,.02,90.00
2016.11.07-22:00,.53,77.58,.83,85.58,.80,82.85,.90,72.83,.91,70.75,.88,71.26,.68,73.57,.66,78.67,.46,75.62,.33,48.48,.13,50.79,.14,25.01,.02,90.00
2016.11.07-23:00,.50,81.95,.79,90.24,.77,85.03,.91,71.78,.93,69.52,.89,70.99,.70,70.88,.64,79.88,.44,75.51,.34,48.29,.14,47.42,.16,26.30,.02,90.00
2016.11.07-24:00,.47,82.95,.72,92.78,.74,85.72,.92,71.23,.96,69.45,.92,71.36,.73,68.88,.63,79.87,.43,74.01,.35,47.90,.15,45.81,.18,30.43,.03,90.00
2016.11.08-01:00,.42,78.95,.64,92.28,.70,84.50,.94,70.84,.99,70.05,.95,72.03,.77,67.61,.63,79.08,.42,71.23,.37,47.41,.17,45.67,.21,35.30,.03,90.00
2016.11.08-02:00,.39,69.51,.56,87.53,.67,81.42,.96,70.62,1.02,71.00,.98,72.87,.82,66.93,.63,77.83,.42,67.31,.38,47.16,.19,46.25,.23,39.57,.04,90.00
2016.11.08-03:00,.41,59.26,.52,78.60,.66,77.74,.99,70.89,1.05,72.10,1.00,73.81,.86,66.69,.62,76.27,.43,62.64,.40,47.33,.20,46.77,.24,42.49,.04,90.00
2016.11.08-04:00,.46,55.16,.53,70.22,.67,75.32,1.01,71.68,1.07,73.01,1.01,74.55,.90,66.65,.62,74.61,.45,58.31,.41,48.01,.20,46.62,.24,43.66,.04,90.00
2016.11.08-05:00,.52,55.11,.57,67.01,.69,74.68,1.02,72.53,1.07,73.27,1.00,74.69,.92,66.62,.60,73.11,.47,55.31,.42,49.01,.20,45.64,.23,43.30,.04,90.00
2016.11.08-06:00,.57,55.86,.60,67.36,.70,75.19,1.02,72.92,1.05,72.56,.98,74.03,.92,66.60,.59,72.00,.50,54.02,.43,50.11,.19,43.92,.22,41.84,.03,90.00
2016.11.08-07:00,.59,55.95,.61,69.50,.69,76.37,1.00,72.87,1.03,71.17,.96,72.88,.93,66.89,.57,71.44,.52,54.44,.43,51.19,.18,41.26,.20,39.14,.03,90.00
2016.11.08-08:00,.60,55.10,.60,72.48,.66,77.85,.98,72.74,1.02,69.84,.95,71.90,.93,67.90,.56,71.50,.54,56.27,.42,52.28,.17,37.80,.18,35.02,.02,90.00
2016.11.08-09:00,.62,54.26,.58,75.37,.63,78.96,.96,72.71,1.01,69.06,.94,71.44,.93,69.51,.54,71.43,.54,58.77,.41,53.50,.17,34.70,.18,30.34,.01,90.00
2016.11.08-10:00,.66,53.39,.56,77.77,.60,79.24,.94,72.94,1.00,68.96,.93,71.41,.92,71.31,.52,70.11,.54,61.11,.41,55.07,.18,33.21,.17,26.87,.01,90.00
2016.11.08-11:00,.73,54.53,.54,79.75,.57,78.61,.93,73.56,1.01,69.51,.92,71.72,.92,73.05,.51,66.94,.53,62.64,.40,56.99,.19,33.80,.18,26.21,.01,90.00
2016.11.08-12:00,.81,57.47,.52,80.68,.55,76.76,.92,74.47,1.01,70.53,.93,72.34,.91,74.72,.52,62.86,.52,63.33,.39,59.00,.20,36.08,.19,28.47,.01,90.00
2016.11.08-13:00,.89,61.37,.50,79.48,.53,72.85,.92,75.24,1.02,71.65,.94,73.13,.91,76.28,.55,59.89,.52,64.01,.37,60.73,.21,38.90,.21,31.86,.02,90.00
2016.11.08-14:00,.95,66.93,.47,76.08,.52,67.06,.92,75.68,1.04,72.81,.96,74.07,.91,77.77,.60,58.99,.53,65.15,.35,61.66,.21,41.54,.22,35.01,.03,90.00
2016.11.08-15:00,.97,74.13,.47,71.72,.54,61.35,.92,75.97,1.06,74.16,.97,75.29,.92,79.34,.66,59.60,.54,66.38,.34,61.18,.22,44.08,.22,37.84,.03,90.00
2016.11.08-16:00,.94,80.90,.49,68.16,.59,57.51,.93,76.01,1.07,75.41,.98,76.42,.90,80.71,.70,61.03,.55,67.54,.32,59.15,.22,46.78,.22,40.57,.04,90.00
2016.11.08-17:00,.84,84.77,.54,68.03,.65,56.90,.93,75.80,1.06,76.21,.96,76.97,.87,81.43,.73,62.83,.55,68.67,.32,56.08,.21,49.57,.22,42.90,.04,90.00
2016.11.08-18:00,.78,88.53,.59,71.90,.72,59.33,.94,75.55,1.05,76.50,.94,76.78,.82,81.22,.74,64.98,.55,69.85,.32,52.76,.20,51.88,.20,44.01,.04,90.00
2016.11.08-19:00,.72,92.70,.62,77.73,.77,62.88,.93,75.19,1.03,76.29,.91,76.03,.78,80.20,.74,67.72,.54,71.32,.33,50.12,.19,53.04,.18,43.02,.04,90.00
2016.11.08-20:00,.65,96.61,.61,83.40,.79,66.24,.92,74.39,1.00,75.58,.89,74.96,.74,78.63,.73,71.04,.53,73.24,.34,48.68,.17,52.56,.17,39.52,.03,90.00
2016.11.08-21:00,.58,100.72,.58,88.01,.80,69.38,.90,73.18,.98,74.59,.87,73.73,.71,76.52,.71,74.41,.51,75.25,.35,48.35,.16,50.46,.15,34.23,.03,90.00
2016.11.08-22:00,.52,104.90,.54,91.72,.81,72.57,.90,71.94,.96,73.68,.86,72.49,.69,73.81,.68,77.20,.48,76.80,.36,48.77,.15,47.45,.15,29.30,.02,90.00
2016.11.08-23:00,.47,108.58,.51,94.87,.81,75.77,.89,71.08,.96,73.20,.86,71.38,.69,70.78,.66,79.07,.46,77.40,.37,49.65,.16,44.68,.16,26.80,.02,90.00
2016.11.08-24:00,.42,111.78,.46,96.52,.79,78.36,.90,70.54,.96,73.18,.86,70.52,.70,68.02,.64,80.06,.44,76.86,.37,50.81,.17,43.18,.18,27.29,.02,90.00
2016.11.09-01:00,.36,113.50,.38,93.60,.77,79.65,.90,70.09,.97,73.50,.88,69.99,.74,66.10,.62,80.43,.43,75.23,.38,52.06,.18,43.20,.20,29.84,.03,90.00
2016.11.09-02:00,.29,110.06,.30,81.35,.74,79.71,.92,69.90,.99,74.15,.91,69.92,.78,65.17,.62,80.23,.42,72.26,.39,53.22,.20,44.42,.22,33.32,.03,90.00
2016.11.09-03:00,.24,96.60,.29,61.30,.73,79.49,.94,70.37,1.01,75.05,.94,70.22,.83,64.92,.61,79.19,.42,67.67,.40,54.23,.21,46.47,.24,36.98,.04,90.00
2016.11.09-04:00,.24,87.91,.33,50.09,.73,80.17,.97,71.42,1.02,75.75,.97,70.52,.88,64.93,.59,77.25,.43,62.14,.41,55.15,.22,48.49,.26,39.94,.04,90.00
2016.11.09-05:00,.26,91.90,.39,49.25,.73,82.04,.99,72.48,1.02,75.70,.99,70.51,.92,65.11,.59,74.99,.45,57.37,.42,56.00,.22,49.75,.26,41.68,.04,90.00
2016.11.09-06:00,.30,100.12,.44,53.55,.73,84.68,.99,72.99,1.01,74.58,1.00,70.13,.95,65.47,.58,72.90,.48,54.36,.42,56.69,.22,50.07,.25,42.38,.04,90.00
2016.11.09-07:00,.33,107.29,.47,59.60,.71,87.58,.98,72.84,.99,72.61,1.00,69.67,.97,66.23,.57,71.31,.51,53.40,.42,57.15,.21,49.07,.24,41.88,.04,90.00
2016.11.09-08:00,.34,111.99,.47,64.82,.67,89.87,.97,72.13,.97,70.32,1.00,69.50,.98,67.58,.57,70.57,.54,54.57,.41,57.45,.20,46.33,.23,39.78,.03,90.00
2016.11.09-09:00,.34,116.30,.46,68.75,.61,90.87,.94,71.31,.96,68.39,1.00,69.89,.97,69.49,.56,70.42,.56,57.20,.39,57.61,.19,42.19,.21,36.41,.03,90.00
2016.11.09-10:00,.37,127.39,.44,72.04,.55,90.15,.93,70.88,.96,67.22,.99,70.75,.96,71.65,.54,69.81,.57,60.22,.38,57.88,.18,38.01,.20,32.97,.02,90.00
2016.11.09-11:00,.40,135.90,.43,75.19,.50,87.46,.91,71.01,.97,66.82,.98,71.79,.94,73.62,.53,67.85,.56,62.92,.37,58.73,.18,35.27,.20,30.72,.02,90.00
2016.11.09-12:00,.40,140.12,.41,77.62,.46,82.66,.91,71.59,.98,67.05,.97,72.89,.92,75.35,.52,64.85,.56,65.07,.35,60.17,.19,34.55,.20,30.31,.02,90.00
2016.11.09-13:00,.38,143.13,.36,78.05,.43,75.36,.92,72.36,1.01,67.80,.98,74.14,.91,77.06,.54,62.34,.55,66.95,.34,61.64,.20,35.88,.21,31.92,.02,90.00
2016.11.09-14:00,.32,144.81,.31,74.15,.43,66.13,.93,73.26,1.04,69.03,1.00,75.69,.91,78.91,.57,61.36,.55,68.70,.33,62.22,.21,38.42,.22,34.78,.03,90.00
2016.11.09-15:00,.25,142.82,.28,64.47,.46,57.71,.95,74.43,1.08,70.81,1.02,77.59,.92,80.86,.61,61.73,.55,70.22,.32,61.33,.22,41.47,.23,38.08,.03,90.00
2016.11.09-16:00,.21,133.10,.29,55.55,.52,53.10,.97,75.72,1.11,72.87,1.03,79.52,.91,82.56,.66,62.76,.55,71.49,.32,59.22,.23,44.62,.23,41.19,.04,90.00
2016.11.09-17:00,.22,117.54,.35,54.76,.60,53.29,.98,76.82,1.13,74.76,1.02,80.96,.89,83.56,.69,63.94,.56,72.60,.33,56.77,.24,47.61,.23,43.59,.04,90.00
2016.11.09-18:00,.28,108.70,.42,60.37,.69,56.97,.98,77.50,1.12,76.17,.99,81.45,.85,83.44,.72,65.10,.56,73.48,.34,54.70,.24,50.18,.23,44.85,.05,90.00
2016.11.09-19:00,.36,108.21,.47,67.33,.76,61.92,.97,77.67,1.10,76.98,.94,80.85,.79,82.20,.73,66.54,.55,74.21,.36,53.32,.23,52.14,.22,44.76,.04,90.00
2016.11.09-20:00,.41,111.71,.50,73.48,.81,66.89,.95,77.21,1.06,77.20,.89,79.28,.74,80.13,.73,68.67,.53,75.19,.37,52.69,.22,53.11,.21,42.88,.04,90.00
2016.11.09-21:00,.44,117.43,.50,79.10,.83,71.69,.93,76.09,1.03,76.90,.85,76.93,.70,77.47,.72,71.48,.51,76.60,.37,52.69,.21,52.62,.19,38.86,.04,90.00
2016.11.09-22:00,.46,124.81,.48,85.07,.83,76.41,.91,74.48,.99,76.24,.82,74.03,.67,74.26,.70,74.48,.48,78.13,.38,53.31,.20,51.04,.19,33.80,.03,90.00
2016.11.09-23:00,.47,133.22,.45,91.83,.81,80.89,.90,72.86,.97,75.51,.80,71.03,.66,70.68,.68,77.03,.45,79.00,.38,54.51,.19,49.22,.19,29.75,.03,90.00
2016.11.09-24:00,.47,141.59,.40,98.57,.77,84.56,.90,71.61,.96,75.09,.81,68.58,.67,67.43,.65,78.87,.43,78.52,.37,56.19,.19,47.85,.19,28.04,.03,90.00
2016.11.10-01:00,.44,149.82,.34,102.90,.73,86.73,.90,70.91,.96,75.26,.83,67.20,.70,65.26,.63,80.05,.41,76.46,.37,58.12,.19,47.43,.21,28.98,.03,90.00
2016.11.10-02:00,.39,156.78,.28,100.15,.67,87.11,.91,70.92,.96,75.97,.87,66.90,.74,64.20,.61,80.37,.40,72.65,.37,59.99,.20,48.14,.23,32.00,.03,90.00
2016.11.10-03:00,.31,156.04,.24,90.40,.64,86.15,.94,71.79,.98,76.82,.91,67.20,.79,63.80,.59,79.43,.39,67.24,.38,61.57,.21,49.67,.25,35.90,.04,90.00
2016.11.10-04:00,.26,151.26,.23,78.21,.62,84.92,.98,73.35,.99,77.21,.96,67.62,.85,63.73,.58,77.33,.41,61.46,.39,62.67,.23,51.34,.26,39.54,.05,90.00
2016.11.10-05:00,.24,144.66,.25,69.30,.62,84.47,1.00,75.15,.99,76.80,1.00,67.94,.91,64.04,.58,74.87,.44,57.08,.39,63.24,.23,52.49,.27,42.17,.05,90.00
2016.11.10-06:00,.23,135.44,.28,66.12,.63,85.11,1.01,76.77,.98,75.53,1.03,68.19,.95,64.80,.59,72.87,.49,54.96,.40,63.40,.24,52.63,.27,43.37,.05,90.00
2016.11.10-07:00,.24,125.83,.31,66.41,.63,86.53,.99,77.86,.97,73.51,1.05,68.48,.98,66.03,.59,71.64,.53,54.78,.40,63.28,.23,51.63,.27,43.16,.05,90.00
2016.11.10-08:00,.25,118.05,.33,67.42,.63,88.11,.96,78.16,.96,71.15,1.05,68.95,.99,67.70,.60,71.18,.57,56.03,.39,62.93,.23,49.49,.26,41.76,.04,90.00
2016.11.10-09:00,.25,112.99,.35,67.79,.60,89.42,.92,77.63,.95,68.94,1.05,69.70,.99,69.71,.59,71.24,.58,58.21,.38,62.41,.22,46.42,.25,39.55,.04,90.00
2016.11.10-10:00,.26,110.36,.36,68.37,.57,90.47,.87,76.45,.95,67.27,1.03,70.69,.97,71.82,.57,71.14,.59,60.82,.36,61.94,.21,42.96,.23,36.99,.03,90.00
2016.11.10-11:00,.27,111.59,.36,70.45,.53,91.46,.83,74.92,.95,66.33,1.02,71.77,.94,73.72,.55,70.25,.58,63.64,.34,61.94,.20,39.69,.22,34.28,.03,90.00
2016.11.10-12:00,.27,115.95,.34,72.82,.48,91.64,.81,73.21,.96,66.03,1.00,72.87,.91,75.32,.53,68.48,.57,66.70,.33,62.68,.20,37.41,.22,32.00,.02,90.00
2016.11.10-13:00,.24,120.62,.31,72.57,.43,89.41,.80,71.68,.99,66.38,1.00,74.19,.89,76.86,.52,66.58,.56,69.96,.31,63.70,.20,36.87,.22,31.16,.02,90.00
2016.11.10-14:00,.19,120.65,.28,66.86,.38,83.03,.81,70.73,1.02,67.44,1.00,75.95,.89,78.57,.53,65.19,.55,72.99,.30,64.08,.21,38.36,.22,32.58,.03,90.00
2016.11.10-15:00,.15,105.93,.27,56.23,.36,72.54,.83,70.47,1.06,69.17,1.02,78.07,.89,80.33,.56,64.48,.54,75.30,.30,63.32,.22,41.43,.23,35.84,.03,90.00
2016.11.10-16:00,.15,77.28,.30,48.44,.37,62.14,.86,70.75,1.10,71.41,1.02,80.27,.89,81.89,.60,64.26,.53,76.61,.31,61.64,.23,44.87,.24,39.41,.04,90.00